Location: Mannheim
(49.4880°N, 8.4650°E)
Time: 07:28:04
(UTC+02:00)

ISS - Visible Passes

Search period start: 23 September 2017 00:00
Search period end: 03 October 2017 00:00
Orbit: 401 x 407 km, 51.6° (Epoch: 23 September)

Date Brightness Start Highest point End Pass type
(mag) Time Alt. Az. Time Alt. Az. Time Alt. Az.
25 Sep -1.3 21:18:56 10° SSW 21:19:28 13° SSW 21:19:28 13° SSW visible
26 Sep -2.3 20:27:15 10° S 20:29:39 19° SE 20:29:49 19° SE visible
26 Sep -0.7 22:02:29 10° WSW 22:02:30 10° WSW 22:02:30 10° WSW visible
27 Sep -3.0 21:10:13 10° SW 21:12:38 41° SSW 21:12:38 41° SSW visible
28 Sep -3.1 20:18:07 10° SW 20:21:08 35° SSE 20:22:37 22° E visible
28 Sep -1.2 21:54:12 10° W 21:55:16 19° W 21:55:16 19° W visible
29 Sep -4.0 21:01:46 10° WSW 21:05:03 88° S 21:05:07 86° E visible
30 Sep -3.8 20:09:25 10° WSW 20:12:40 62° SSE 20:14:52 19° ENE visible
30 Sep -1.5 21:45:57 10° W 21:47:30 25° WNW 21:47:30 25° WNW visible
01 Oct -3.7 20:53:26 10° W 20:56:42 67° N 20:57:10 57° NE visible
02 Oct -3.8 20:00:57 10° WSW 20:04:14 84° NNW 20:06:45 16° ENE visible
02 Oct -1.7 21:37:39 10° WNW 21:39:24 28° WNW 21:39:24 28° WNW visible
